Regional Weather Roundup
Issued by NWS

Home | Current Version | Previous Version | Text Only | Print | Product List | Glossary On
Versions: 1 2 3 4 5 6 7 8 9 10 11 12 13 14 15 16 17 18 19 20 21 22 23 24 25 26 27 28 29 30 31 32 33 34 35 36 37 38 39 40 41 42 43 44 45 46 47 48 49 50
000
ASUS46 KSTO 191215
RWRCA

NORTHERN AND CENTRAL CA REGIONAL WEATHER ROUNDUP
NATIONAL WEATHER SERVICE SACRAMENTO CA
500 AM PDT TUE SEP 19 2017

NOTE: FAIR INDICATES FEW OR NO CLOUDS BELOW 12,000 FEET WITH NO
SIGNIFICANT WEATHER AND/OR OBSTRUCTIONS TO VISIBILITY.

CAZ001-003-191300-
NORTHWEST AREA

CITY           SKY/WX    TMP DP  RH WIND       PRES   REMARKS
CRESCENT CITY  CLOUDY    57  54  89 S10       30.02S
UKIAH          PTCLDY    56  44  64 NW6       30.02R
$$

CAZ006-505>513-191300-
BAY AREA

CITY           SKY/WX    TMP DP  RH WIND       PRES   REMARKS
SANTA ROSA     PTCLDY    50  45  83 SE3       29.99R
SAN RAFAEL     N/A       57  MM  MM MISG
NAPA           PTCLDY    48  44  86 CALM      29.99S
CONCORD        PTCLDY    60  50  69 SW3       29.99R
OAKLAND CITY   N/A      MM  MM  MM MISG
OAKLAND        CLEAR     60  53  77 W12       30.00R
SAN FRAN CITY  N/A       58  MM  82 MISG
SAN FRAN ARPT  CLEAR     59  53  80 W17       30.00R
LIVERMORE      CLEAR     54  49  83 CALM      29.99R
HAYWARD        CLEAR     57  49  74 E5        30.00R
REDWOOD CITY   N/A       59  MM  75 MISG
MOFFETT ARPT   CLEAR     59  52  77 W8        30.01R
SAN JOSE ARPT  CLEAR     59  51  75 W9        30.00S
$$
CAZ034-037-514>518-191300-
CENTRAL COAST

CITY           SKY/WX    TMP DP  RH WIND       PRES   REMARKS
WATSONVILLE    CLEAR     51  49  92 NW3       30.01R
SALINAS        CLEAR     58  54  86 VRB5      30.01S
MONTEREY       PTCLDY    58  54  86 S7        30.02S
SAN LUIS OBISP CLEAR     62  46  55 NW14      29.93F
SANTA MARIA    CLOUDY    57  56  96 NW5       29.95R
$$
CAZ015-016-191300-
NORTHERN SACRAMENTO VALLEY

CITY           SKY/WX    TMP DP  RH WIND       PRES   REMARKS
REDDING        CLEAR     53  41  63 CALM      29.96R
RED BLUFF      CLEAR     60  41  49 N6        29.98R
OROVILLE       PTCLDY    57  51  80 CALM      29.98R
$$
CAZ016>018-191300-
SOUTHERN SACRAMENTO VALLEY

CITY           SKY/WX    TMP DP  RH WIND       PRES   REMARKS
AUBURN         MOCLDY    52  52 100 CALM      29.97S
BEALE AFB      PTCLDY    56  49  78 CALM      29.95R
LINCOLN        FAIR      52  45  76 N3        29.96R
MARYSVILLE     MOCLDY    56  50  80 CALM      29.97R
SAC INTL ARPT  MOCLDY    49  48  97 N6        29.95R
MATHER AIRPORT CLEAR     54  48  82 NE5       29.95R
DOWNTOWN SAC   N/A       55  MM  MM MISG
SAC EXEC ARPT  MOCLDY    53  50  89 CALM      29.95R
VACAVILLE      PTCLDY    62  44  51 NW7       29.97R
TRAVIS AFB     PTCLDY    59  45  59 W12       29.94R
$$
CAZ019>021-191300-
SAN JOAQUIN VALLEY

CITY           SKY/WX    TMP DP  RH WIND       PRES   REMARKS
STOCKTON       PTCLDY    56  48  74 W6        29.96R
MODESTO        CLEAR     59  49  69 CALM      29.95S
MERCED         CLEAR     53  47  79 NW3       29.95S
LEMOORE        CLEAR     61  45  55 NW13      29.94S
FRESNO         CLEAR     60  49  66 NW15      29.94R
HANFORD        CLEAR     60  49  66 NW13      29.94R
PORTERVILLE      N/A     62  51  67 W3        29.94R
BAKERSFIELD    CLEAR     64  54  69 NW7       29.94R
$$
CAZ011-012-071-191300-
NORTHERN MOUNTAINS

CITY           SKY/WX    TMP DP  RH WIND       PRES   REMARKS
YREKA          PTCLDY    47  42  83 CALM      30.00R
MOUNT SHASTA   MOCLDY    41  36  82 CALM      29.98R
ALTURAS        PTCLDY    36  31  82 CALM      29.97S
$$
CAZ011-012-071-191300-
SIERRA NEVADA MTNS

CITY           SKY/WX    TMP DP  RH WIND       PRES   REMARKS
BLUE CANYON    PTCLDY    44  43  96 S3        30.04R
TRUCKEE        PTCLDY    43  28  56 SW3       30.00R
TAHOE VLY ARPT PTCLDY    48  33  56 S10G21    30.00R
MAMMOTH LAKES  FAIR      57  14  18 SW23G32   30.00F
$$




USA.gov is the U.S. government's official web portal to all federal, state and local government web resources and services.